Location: Wapato
(46.4478°N, 120.4212°W)
Time: 00:20:40
(UTC+00:00)

Courier 1B Rocket - All Passes

Search period start: 12 May 2026 00:00
Search period end: 22 May 2026 00:00
Orbit: 920 x 1201 km, 28.3° (Epoch: 11 May)

Date Brightness Start Highest point End Pass type
(mag) Time Alt. Az. Time Alt. Az. Time Alt. Az.
12 May - 17:52:22 10° SSW 17:55:32 14° S 17:58:47 10° SE daylight
12 May - 19:43:58 10° SW 19:47:43 16° S 19:51:35 10° SSE daylight
13 May - 16:52:39 10° S 16:54:42 12° SSE 16:56:47 10° SE daylight
13 May - 18:43:09 10° SW 18:46:49 16° S 18:50:36 10° SE daylight
13 May - 20:36:40 10° SW 20:39:01 12° SSW 20:41:26 10° S daylight
14 May - 17:42:35 10° SSW 17:45:57 15° S 17:49:24 10° SE daylight
14 May - 19:35:05 10° SW 19:38:07 13° S 19:41:15 10° SSE daylight
15 May - 16:42:18 10° SSW 16:45:07 13° S 16:47:58 10° SE daylight
15 May - 18:33:58 10° SW 18:37:15 14° S 18:40:37 10° SSE daylight
16 May - 15:42:38 10° S 15:44:18 11° SSE 15:46:00 10° SSE daylight
16 May - 17:33:06 10° SSW 17:36:24 15° S 17:39:45 10° SSE daylight
16 May - 19:27:04 10° SSW 19:28:32 11° SSW 19:30:02 10° S daylight
17 May - 16:32:28 10° SSW 16:35:33 14° S 16:38:41 10° SE daylight
17 May - 18:25:11 10° SSW 18:27:41 12° S 18:30:14 10° SSE daylight
18 May - 15:32:08 10° SSW 15:34:44 13° S 15:37:23 10° SE daylight
18 May - 17:23:55 10° SW 17:26:51 14° S 17:29:49 10° SSE daylight
19 May - 14:32:19 10° S 14:33:56 11° SSE 14:35:34 10° SSE daylight
19 May - 16:22:57 10° SSW 16:26:01 14° S 16:29:07 10° SSE daylight
20 May - 15:22:12 10° SSW 15:25:12 14° S 15:28:12 10° SSE daylight
20 May - 17:15:12 10° SSW 17:17:18 12° S 17:19:24 10° S daylight
21 May - 14:21:42 10° SSW 14:24:24 13° S 14:27:02 10° SSE daylight
21 May - 16:13:44 10° SSW 16:16:29 13° S 16:19:14 10° SSE daylight
